Regional Weather Roundup
Issued by NWS Charleston, WV

Home | Current Version | Previous Version | Graphics & Text | Print | Product List | Glossary On
Versions: 1 2 3 4 5 6 7 8 9 10 11 12 13 14 15 16 17 18 19 20 21 22 23 24 25 26 27 28
000
ASUS41 KRLX 271910
RWRRLX
West Virginia Regional Weather Roundup
National Weather Service Charleston WV
300 PM EDT FRI MAY 27 2016

Note: "fair" indicates few or no clouds below 12,000 feet with no
significant weather and/or obstructions to visibility.

WVZ003-272000-
Northern Panhandle of West Virginia

CITY           SKY/WX    TMP DP  RH WIND       PRES   REMARKS
WHEELING         N/A     85  61  44 SW12      30.06F
$$

WVZ009-272000-
Northwest West Virginia

CITY           SKY/WX    TMP DP  RH WIND       PRES   REMARKS
PARKERSBURG      N/A     86  64  47 SE7       30.08F
$$

WVZ006-272000-
Western West Virginia

CITY           SKY/WX    TMP DP  RH WIND       PRES   REMARKS
HUNTINGTON     PTSUNNY   84  66  54 SW5       30.05F
$$

WVZ015-272000-
West Central West Virginia

CITY           SKY/WX    TMP DP  RH WIND       PRES   REMARKS
CHARLESTON       N/A     86  63  45 W6        30.06F
$$

WVZ022-031-272000-
North Central West Virginia

CITY           SKY/WX    TMP DP  RH WIND       PRES   REMARKS
CLARKSBURG     CLOUDY    81  63  54 SW5       30.09S
MORGANTOWN       N/A     85  60  42 VRB7      30.09S
$$

WVZ025-035-042-045-272000-
Southern West Virginia

CITY           SKY/WX    TMP DP  RH WIND       PRES   REMARKS
BECKLEY          N/A     85  58  39 NW6       30.14F
LOGAN            N/A     84  64  51 CALM      30.09F
BLUEFIELD      CLOUDY    74  60  61 CALM      30.18F
LEWISBURG        N/A     81  57  43 CALM      30.14F
$$

WVZ047-272000-
Northern Mountains of West Virginia

CITY           SKY/WX    TMP DP  RH WIND       PRES   REMARKS
ELKINS           N/A     83  58  42 NW6       30.11F
$$

WVZ052-272000-
Eastern Panhandle of West Virginia

CITY           SKY/WX    TMP DP  RH WIND       PRES   REMARKS
MARTINSBURG      N/A     87  65  47 S9        30.05S
PETERSBURG     PTSUNNY   83  68  60 NW6       30.07R
$$




USA.gov is the U.S. government's official web portal to all federal, state and local government web resources and services.